Regional Weather Roundup
Issued by NWS

Home | Current Version | Previous Version | Text Only | Print | Product List | Glossary Off
Versions: 1 2 3 4 5 6 7 8 9 10 11 12 13 14 15 16 17 18 19 20 21 22 23 24 25 26 27 28 29 30 31 32 33 34 35 36 37 38 39 40 41 42 43 44 45 46 47 48 49 50

000
ASUS43 KDTX 251310
RWRMI
MICHIGAN HOURLY REGIONAL WEATHER ROUNDUP
NATIONAL WEATHER SERVICE DETROIT/PONTIAC MI
900 AM EDT TUE APR 25 2017

NOTE: "FAIR" INDICATES FEW OR NO CLOUDS BELOW 12,000 FEET WITH NO
SIGNIFICANT WEATHER AND/OR OBSTRUCTION TO VISIBILITY.

MIZ047>049-052>055-059>063-066>070-074>076-081>083-251400-
SOUTHEAST LOWER MICHIGAN

CITY           SKY/WX    TMP DP  RH WIND       PRES   REMARKS
ADRIAN         CLOUDY    54  49  83 SE8       29.85S
ALMA           CLOUDY    52  46  79 E8        29.85S
ANN ARBOR      CLOUDY    53  46  77 E7        29.85F
BAD AXE        LGT RAIN  46  42  86 SE5       29.91F
CARO           CLOUDY    49  43  79 E6        29.87F
DETROIT CITY   CLOUDY    53  47  79 SE13      29.89R
DETROIT        CLOUDY    54  46  74 E8        29.88S
FLINT          CLOUDY    54  44  69 SE8       29.86F
GROSSE ILE     CLOUDY    54  47  78 SE7       29.87S
HILLSDALE      MOSUNNY   52  46  82 SE8       29.83S
HOWELL         CLOUDY    54  43  67 SE8       29.85S

CITY           SKY/WX    TMP DP  RH WIND       PRES   REMARKS
JACKSON        PTSUNNY   55  47  74 SE9       29.84S
LAMBERTVILLE   CLOUDY    55  50  83 SE6       29.86S
LANSING        CLOUDY    55  45  68 SE12      29.84S
LAPEER         CLOUDY    51  42  71 SE8       29.88F
MASON          PTSUNNY   55  48  76 SE8       29.84F
MONROE         CLOUDY    54  48  82 E12       29.86S
MT. CLEMENS    CLOUDY    53  49  89 SE13      29.87S
PONTIAC        PTSUNNY   52  44  74 E8        29.86S
PORT HOPE        N/A     46  40  79 SE16      29.90S
PORT HURON     CLOUDY    52  45  76 SE8       29.90S
TRI CITIES     CLOUDY    52  43  71 SE12      29.87S
MIDLAND        CLOUDY    53  40  61 SE8       29.86S
TROY           CLOUDY    54  44  68 E3        29.90R
SAGINAW HB     CLOUDY    52  41  66 E9        29.86F
$$
MIZ043>046-050>051-056>058-064>065-071>073-077>080-251400-
SOUTHWEST LOWER MICHIGAN

CITY           SKY/WX    TMP DP  RH WIND       PRES   REMARKS
BATTLE CREEK   PTSUNNY   57  49  74 SE10      29.82S
BENTON HARBOR  MOSUNNY   59  49  69 SE10      29.76S
BIG RAPIDS     SUNNY     52  43  71 SE9       29.81F
COLDWATER      PTSUNNY   55  49  78 SE7       29.82S
FREMONT        FAIR      55  43  64 SE12      29.79F
HOLLAND        SUNNY     58  49  72 SE7       29.78F
GRAND RAPIDS   PTSUNNY   56  49  77 SE9       29.80S
IONIA          PTSUNNY   52  46  80 E5        29.82S
KALAMAZOO      SUNNY     57  46  66 SE7       29.81S
LUDINGTON      MOSUNNY   57  47  69 SE10G16   29.76F
MARSHALL       CLOUDY    55  48  77 SE7       29.82S
MOUNT PLEASANT CLOUDY    52  42  68 SE6       29.84S
MUSKEGON       PTSUNNY   59  48  67 SE13      29.77F
SOUTH HAVEN    SUNNY     58  49  72 SE6       29.77S
$$
MIZ016>042-251400-
NORTHERN LOWER MICHIGAN

CITY           SKY/WX    TMP DP  RH WIND       PRES   REMARKS
ALPENA         MOSUNNY   48  40  73 SE12G29   29.90F
BEAVER ISLAND  MOSUNNY   49  40  69 SE10      29.79F
BELLAIRE       MOSUNNY   56  41  56 S9        29.81F
CADILLAC       SUNNY     51  41  69 SE10      29.81F
CHARLEVOIX     PTSUNNY   55  42  60 SE9       29.82F
FRANKFORT      MOSUNNY   58  44  59 SE13      29.76F
GAYLORD        SUNNY     50  37  61 SE10      29.83F
GRAYLING       MOSUNNY   51  40  66 SE10      29.84F
HARBOR SPRINGS MOSUNNY   49  38  64 E12       29.82S
HOUGHTON LAKE  PTSUNNY   51  40  65 SE9       29.85S
MANISTEE       MOSUNNY   57  45  64 E10       29.76F
OSCODA         CLOUDY    47  38  69 SE5       29.90S
PELLSTON       PTSUNNY   49  37  63 SE13      29.83F
ROGERS CITY    SUNNY     46  38  75 SE8       29.90F
TRAVERSE CITY  PTSUNNY   56  41  57 SE9       29.79F
$$
MIZ007>008-015-251400-
EASTERN UPPER MICHIGAN

CITY           SKY/WX    TMP DP  RH WIND       PRES   REMARKS
KINROSS        CLOUDY    43  34  70 SE23      29.85F
MACKINAC ISLAN CLOUDY    39  38  96 E16G24    29.83F WCI  30
NEWBERRY       SUNNY     48  39  72 SE10      29.80F
S. S. MARIE    CLOUDY    46  34  62 E12G23    29.85F
MUNISING         N/A     50  38  63 S12G17    29.74S
$$
MIZ004>006-011>014-085-251400-
CENTRAL UPPER MICHIGAN

CITY           SKY/WX    TMP DP  RH WIND       PRES   REMARKS
MANISTIQUE     MOSUNNY   47  40  76 E13       29.78F
ESCANABA       CLOUDY    48  40  73 E12       29.76S
MENOMINEE      MOSUNNY   52  42  69 S12       29.73S
SAWYER-GWINN   SUNNY     46  37  71 S13       29.73F
$$
MIZ001>003-009>011-084-251400-
WESTERN UPPER MICHIGAN

CITY           SKY/WX    TMP DP  RH WIND       PRES   REMARKS
IRON MOUNTAIN  PTSUNNY   49  37  63 SE9       29.69F
HOUGHTON       CLOUDY    46  37  71 E8        29.65F
COPPER HARBOR    N/A     47  37  68 SW14G25   29.66F
IRONWOOD       CLOUDY    56  34  43 S13G24    29.59S
$$

ABBREVIATIONS USED IN REMARKS
   TC - TEMPERATURE IN CELSIUS
  WCI - WIND CHILL INDEX
   HX - HEAT INDEX
  VSB - VISIBILITY





USA.gov is the U.S. government's official web portal to all federal, state and local government web resources and services.